Time,TemperatureF,DewpointF,PressureIn,WindDirection,WindDirectionDegrees,WindSpeedMPH,WindSpeedGustMPH,Humidity,HourlyPrecipIn,Conditions,Clouds,dailyrainin,SoftwareType,DateUTC
2013-01-25 00:01:00,44.0,41.0,29.32,WNW,287,0.0,0.0,88,0.00,,,0.00,,2013-01-25 09:01:00,
2013-01-25 00:21:00,43.0,39.0,29.32,WNW,286,0.0,0.0,86,0.00,,,0.00,,2013-01-25 09:21:00,
2013-01-25 00:31:00,42.0,38.0,29.32,WNW,286,0.0,0.0,85,0.00,,,0.00,,2013-01-25 09:31:00,
2013-01-25 00:41:00,42.0,38.0,29.32,WNW,286,0.0,0.0,85,0.00,,,0.00,,2013-01-25 09:41:00,
2013-01-25 00:52:00,40.0,36.0,29.32,WNW,286,0.0,0.0,86,0.00,,,0.00,,2013-01-25 09:52:00,
2013-01-25 01:01:00,40.0,36.0,29.32,WNW,286,0.0,0.0,86,0.00,,,0.00,,2013-01-25 10:01:00,
2013-01-25 01:11:00,39.0,35.0,29.32,WNW,286,0.0,0.0,87,0.00,,,0.00,,2013-01-25 10:11:00,
2013-01-25 01:21:00,39.0,35.0,29.32,WNW,286,0.0,0.0,87,0.00,,,0.00,,2013-01-25 10:21:00,
2013-01-25 01:31:00,39.0,35.0,29.32,WNW,286,0.0,0.0,87,0.00,,,0.00,,2013-01-25 10:31:00,
2013-01-25 01:41:00,39.0,35.0,29.32,WNW,286,0.0,0.0,87,0.00,,,0.00,,2013-01-25 10:41:00,
2013-01-25 01:52:00,39.0,35.0,29.32,WNW,286,0.0,0.0,87,0.00,,,0.00,,2013-01-25 10:52:00,
2013-01-25 02:01:00,38.0,35.0,29.32,WNW,286,0.0,0.0,88,0.00,,,0.00,,2013-01-25 11:01:00,
2013-01-25 02:11:00,38.0,35.0,29.32,WNW,286,0.0,0.0,88,0.00,,,0.00,,2013-01-25 11:11:00,
2013-01-25 02:22:00,38.0,35.0,29.32,WNW,286,0.0,0.0,88,0.00,,,0.00,,2013-01-25 11:22:00,
2013-01-25 02:31:00,39.0,36.0,29.32,WNW,286,0.0,0.0,89,0.00,,,0.00,,2013-01-25 11:31:00,
2013-01-25 02:41:00,39.0,36.0,29.32,WNW,286,0.0,0.0,89,0.00,,,0.00,,2013-01-25 11:41:00,
2013-01-25 02:52:00,39.0,36.0,29.32,WNW,286,0.0,0.0,89,0.00,,,0.00,,2013-01-25 11:52:00,
2013-01-25 03:01:00,39.0,36.0,29.32,WNW,286,0.0,0.0,89,0.00,,,0.00,,2013-01-25 12:01:00,
2013-01-25 03:11:00,39.0,36.0,29.32,WNW,286,0.0,0.0,89,0.00,,,0.00,,2013-01-25 12:11:00,
2013-01-25 03:21:00,38.0,35.0,29.32,WNW,286,0.0,0.0,89,0.00,,,0.00,,2013-01-25 12:21:00,
2013-01-25 03:32:00,38.0,35.0,29.32,WNW,286,0.0,0.0,89,0.00,,,0.00,,2013-01-25 12:32:00,
2013-01-25 03:41:00,38.0,35.0,29.32,WNW,286,0.0,0.0,89,0.00,,,0.00,,2013-01-25 12:41:00,
2013-01-25 03:53:00,38.0,35.0,29.32,WNW,286,0.0,0.0,89,0.00,,,0.00,,2013-01-25 12:53:00,
2013-01-25 04:01:00,38.0,35.0,29.32,WNW,286,0.0,0.0,90,0.00,,,0.00,,2013-01-25 13:01:00,
2013-01-25 04:11:00,38.0,35.0,29.32,WNW,286,0.0,0.0,90,0.00,,,0.00,,2013-01-25 13:11:00,
2013-01-25 04:21:00,38.0,35.0,29.32,WNW,286,0.0,0.0,90,0.00,,,0.00,,2013-01-25 13:21:00,
2013-01-25 04:31:00,38.0,35.0,29.32,WNW,286,0.0,0.0,90,0.00,,,0.00,,2013-01-25 13:31:00,
2013-01-25 04:42:00,38.0,35.0,29.32,WNW,286,0.0,0.0,90,0.00,,,0.00,,2013-01-25 13:42:00,
2013-01-25 04:52:00,38.0,35.0,29.32,WNW,286,0.0,0.0,90,0.00,,,0.00,,2013-01-25 13:52:00,
2013-01-25 05:02:00,38.0,35.0,29.32,WNW,286,0.0,0.0,90,0.00,,,0.00,,2013-01-25 14:02:00,
2013-01-25 05:11:00,38.0,35.0,29.32,WNW,286,0.0,0.0,90,0.00,,,0.00,,2013-01-25 14:11:00,
2013-01-25 05:22:00,39.0,37.0,29.32,WNW,286,1.0,5.0,91,0.00,,,0.00,,2013-01-25 14:22:00,
2013-01-25 05:32:00,38.0,36.0,29.29,WNW,286,2.0,0.0,91,0.00,,,0.00,,2013-01-25 14:32:00,
2013-01-25 05:41:00,38.0,36.0,29.29,WNW,286,2.0,0.0,91,0.00,,,0.00,,2013-01-25 14:41:00,
2013-01-25 05:53:00,38.0,36.0,29.29,WNW,286,1.0,0.0,92,0.00,,,0.00,,2013-01-25 14:53:00,
2013-01-25 06:01:00,38.0,36.0,29.29,WNW,286,0.0,0.0,92,0.00,,,0.00,,2013-01-25 15:01:00,
2013-01-25 06:11:00,38.0,36.0,29.29,WNW,286,0.0,0.0,92,0.00,,,0.00,,2013-01-25 15:11:00,
2013-01-25 06:21:00,39.0,37.0,29.29,WNW,286,1.0,4.0,92,0.00,,,0.00,,2013-01-25 15:21:00,
2013-01-25 06:31:00,38.0,36.0,29.29,WNW,286,1.0,0.0,92,0.00,,,0.00,,2013-01-25 15:31:00,
2013-01-25 06:41:00,38.0,36.0,29.29,WNW,286,1.0,0.0,92,0.00,,,0.00,,2013-01-25 15:41:00,
2013-01-25 06:52:00,37.0,35.0,29.29,WNW,286,0.0,0.0,92,0.00,,,0.00,,2013-01-25 15:52:00,
2013-01-25 07:01:00,38.0,36.0,29.29,WNW,286,0.0,0.0,92,0.00,,,0.00,,2013-01-25 16:01:00,
2013-01-25 07:11:00,38.0,36.0,29.29,WNW,286,0.0,0.0,92,0.00,,,0.00,,2013-01-25 16:11:00,
2013-01-25 07:21:00,38.0,36.0,29.29,WNW,286,0.0,0.0,92,0.00,,,0.00,,2013-01-25 16:21:00,
2013-01-25 07:31:00,38.0,36.0,29.29,WNW,286,0.0,3.0,92,0.00,,,0.00,,2013-01-25 16:31:00,
2013-01-25 07:41:00,38.0,36.0,29.29,WNW,286,0.0,3.0,92,0.00,,,0.00,,2013-01-25 16:41:00,
2013-01-25 07:52:00,38.0,36.0,29.29,WNW,286,1.0,0.0,93,0.00,,,0.00,,2013-01-25 16:52:00,
2013-01-25 08:01:00,38.0,36.0,29.29,WNW,286,0.0,0.0,92,0.00,,,0.00,,2013-01-25 17:01:00,
2013-01-25 08:11:00,38.0,36.0,29.29,WNW,286,0.0,0.0,92,0.00,,,0.00,,2013-01-25 17:11:00,
2013-01-25 08:21:00,37.0,35.0,29.29,WNW,286,0.0,0.0,92,0.00,,,0.00,,2013-01-25 17:21:00,
2013-01-25 08:31:00,38.0,36.0,29.29,WNW,286,0.0,3.0,93,0.00,,,0.00,,2013-01-25 17:31:00,
2013-01-25 08:53:00,38.0,36.0,29.29,WNW,286,2.0,4.0,93,0.00,,,0.00,,2013-01-25 17:53:00,
2013-01-25 09:01:00,38.0,36.0,29.29,WNW,286,2.0,0.0,93,0.00,,,0.00,,2013-01-25 18:01:00,
2013-01-25 09:22:00,39.0,37.0,29.29,WNW,286,2.0,5.0,93,0.00,,,0.00,,2013-01-25 18:22:00,
2013-01-25 09:32:00,40.0,38.0,29.29,WNW,286,4.0,4.0,94,0.00,,,0.00,,2013-01-25 18:32:00,
2013-01-25 10:02:00,40.0,38.0,29.29,WNW,289,5.0,0.0,94,0.00,,,0.00,,2013-01-25 19:02:00,
2013-01-25 10:21:00,40.0,38.0,29.29,WNW,300,7.0,7.0,94,0.00,,,0.00,,2013-01-25 19:21:00,
2013-01-25 10:31:00,40.0,38.0,29.29,NW,309,8.0,8.0,93,0.00,,,0.00,,2013-01-25 19:31:00,
2013-01-25 10:53:00,40.0,37.0,29.29,NW,311,7.0,7.0,89,0.00,,,0.00,,2013-01-25 19:53:00,
2013-01-25 11:01:00,41.0,37.0,29.29,WNW,299,6.0,13.0,86,0.00,,,0.00,,2013-01-25 20:01:00,
2013-01-25 11:21:00,41.0,30.0,29.29,WNW,297,9.0,9.0,64,0.00,,,0.00,,2013-01-25 20:21:00,
2013-01-25 11:31:00,40.0,27.0,29.29,WNW,296,8.0,8.0,60,0.00,,,0.00,,2013-01-25 20:31:00,
2013-01-25 11:41:00,40.0,27.0,29.29,WNW,296,8.0,8.0,60,0.00,,,0.00,,2013-01-25 20:41:00,
2013-01-25 11:52:00,40.0,25.0,29.29,WNW,298,8.0,0.0,54,0.00,,,0.00,,2013-01-25 20:52:00,
2013-01-25 12:01:00,40.0,25.0,29.29,NW,308,5.0,8.0,54,0.00,,,0.00,,2013-01-25 21:01:00,
2013-01-25 12:11:00,40.0,25.0,29.29,NW,308,5.0,8.0,54,0.00,,,0.00,,2013-01-25 21:11:00,
2013-01-25 12:22:00,40.0,24.0,29.32,NW,307,3.0,0.0,53,0.00,,,0.00,,2013-01-25 21:22:00,
2013-01-25 12:32:00,40.0,24.0,29.29,NW,307,2.0,0.0,52,0.00,,,0.00,,2013-01-25 21:32:00,
2013-01-25 12:42:00,40.0,24.0,29.29,NW,307,2.0,0.0,52,0.00,,,0.00,,2013-01-25 21:42:00,
2013-01-25 12:52:00,40.0,22.0,29.29,NW,307,2.0,5.0,49,0.00,,,0.00,,2013-01-25 21:52:00,
2013-01-25 13:01:00,40.0,22.0,29.32,NW,307,4.0,8.0,49,0.00,,,0.00,,2013-01-25 22:01:00,
2013-01-25 13:11:00,40.0,22.0,29.32,NW,307,4.0,8.0,49,0.00,,,0.00,,2013-01-25 22:11:00,
2013-01-25 13:21:00,39.0,21.0,29.32,NW,307,5.0,9.0,48,0.00,,,0.00,,2013-01-25 22:21:00,
2013-01-25 13:31:00,39.0,21.0,29.32,NW,307,7.0,7.0,48,0.00,,,0.00,,2013-01-25 22:31:00,
2013-01-25 13:41:00,39.0,21.0,29.32,NW,307,7.0,7.0,48,0.00,,,0.00,,2013-01-25 22:41:00,
2013-01-25 13:52:00,40.0,19.0,29.32,NW,307,6.0,6.0,43,0.00,,,0.00,,2013-01-25 22:52:00,
2013-01-25 14:01:00,39.0,19.0,29.32,NW,307,5.0,0.0,44,0.00,,,0.00,,2013-01-25 23:01:00,
2013-01-25 14:11:00,39.0,19.0,29.32,NW,307,5.0,0.0,44,0.00,,,0.00,,2013-01-25 23:11:00,
2013-01-25 14:21:00,40.0,20.0,29.32,NW,307,3.0,6.0,45,0.00,,,0.00,,2013-01-25 23:21:00,
2013-01-25 14:31:00,40.0,21.0,29.32,NW,307,4.0,5.0,47,0.00,,,0.00,,2013-01-25 23:31:00,
2013-01-25 14:52:00,39.0,19.0,29.32,NW,307,4.0,0.0,44,0.00,,,0.00,,2013-01-25 23:52:00,
2013-01-25 15:01:00,39.0,17.0,29.32,NW,307,4.0,8.0,41,0.00,,,0.00,,2013-01-26 00:01:00,
2013-01-25 15:11:00,39.0,17.0,29.32,NW,307,4.0,8.0,41,0.00,,,0.00,,2013-01-26 00:11:00,
2013-01-25 15:22:00,39.0,18.0,29.32,NW,307,5.0,0.0,42,0.00,,,0.00,,2013-01-26 00:22:00,
2013-01-25 15:31:00,39.0,18.0,29.32,NW,307,4.0,0.0,43,0.00,,,0.00,,2013-01-26 00:31:00,
2013-01-25 15:41:00,39.0,18.0,29.32,NW,307,4.0,0.0,43,0.00,,,0.00,,2013-01-26 00:41:00,
2013-01-25 15:53:00,40.0,18.0,29.32,NW,306,3.0,5.0,41,0.00,,,0.00,,2013-01-26 00:53:00,
2013-01-25 16:01:00,39.0,17.0,29.32,WNW,292,4.0,4.0,40,0.00,,,0.00,,2013-01-26 01:01:00,
2013-01-25 16:11:00,39.0,17.0,29.32,WNW,292,4.0,4.0,40,0.00,,,0.00,,2013-01-26 01:11:00,
2013-01-25 16:22:00,39.0,17.0,29.32,West,279,4.0,4.0,41,0.00,,,0.00,,2013-01-26 01:22:00,
2013-01-25 16:31:00,37.0,16.0,29.32,West,279,4.0,6.0,41,0.00,,,0.00,,2013-01-26 01:31:00,
2013-01-25 16:41:00,37.0,16.0,29.32,West,279,4.0,6.0,41,0.00,,,0.00,,2013-01-26 01:41:00,
2013-01-25 16:52:00,37.0,16.0,29.35,West,279,5.0,0.0,42,0.00,,,0.00,,2013-01-26 01:52:00,
2013-01-25 17:01:00,36.0,15.0,29.35,West,279,5.0,5.0,41,0.00,,,0.00,,2013-01-26 02:01:00,
2013-01-25 17:11:00,36.0,15.0,29.35,West,279,5.0,5.0,41,0.00,,,0.00,,2013-01-26 02:11:00,
2013-01-25 17:21:00,36.0,15.0,29.35,West,279,6.0,6.0,41,0.00,,,0.00,,2013-01-26 02:21:00,
2013-01-25 17:32:00,36.0,14.0,29.35,West,279,6.0,11.0,40,0.00,,,0.00,,2013-01-26 02:32:00,
2013-01-25 17:41:00,36.0,14.0,29.35,West,279,6.0,11.0,40,0.00,,,0.00,,2013-01-26 02:41:00,
2013-01-25 17:52:00,35.0,13.0,29.35,West,279,7.0,7.0,39,0.00,,,0.00,,2013-01-26 02:52:00,
2013-01-25 18:01:00,35.0,9.0,29.35,West,279,7.0,0.0,34,0.00,,,0.00,,2013-01-26 03:01:00,
2013-01-25 18:11:00,35.0,9.0,29.35,West,279,7.0,0.0,34,0.00,,,0.00,,2013-01-26 03:11:00,
2013-01-25 18:21:00,34.0,9.0,29.35,West,279,5.0,6.0,35,0.00,,,0.00,,2013-01-26 03:21:00,
2013-01-25 18:31:00,34.0,9.0,29.35,West,279,3.0,5.0,34,0.00,,,0.00,,2013-01-26 03:31:00,
2013-01-25 18:42:00,34.0,9.0,29.35,West,279,3.0,5.0,34,0.00,,,0.00,,2013-01-26 03:42:00,
2013-01-25 18:52:00,34.0,8.0,29.38,West,279,4.0,5.0,33,0.00,,,0.00,,2013-01-26 03:52:00,
2013-01-25 19:01:00,34.0,9.0,29.38,West,279,4.0,0.0,35,0.00,,,0.00,,2013-01-26 04:01:00,
2013-01-25 19:12:00,34.0,9.0,29.38,West,279,4.0,0.0,35,0.00,,,0.00,,2013-01-26 04:12:00,
2013-01-25 19:21:00,33.0,10.0,29.38,West,279,2.0,0.0,37,0.00,,,0.00,,2013-01-26 04:21:00,
2013-01-25 19:32:00,33.0,11.0,29.38,West,279,2.0,8.0,39,0.00,,,0.00,,2013-01-26 04:32:00,
2013-01-25 19:42:00,33.0,11.0,29.38,West,279,2.0,8.0,39,0.00,,,0.00,,2013-01-26 04:42:00,
2013-01-25 19:52:00,33.0,9.0,29.38,West,279,4.0,8.0,36,0.00,,,0.00,,2013-01-26 04:52:00,
2013-01-25 20:01:00,33.0,9.0,29.38,West,279,4.0,0.0,36,0.00,,,0.00,,2013-01-26 05:01:00,
2013-01-25 20:12:00,33.0,9.0,29.38,West,279,4.0,0.0,36,0.00,,,0.00,,2013-01-26 05:12:00,
2013-01-25 20:22:00,32.0,7.0,29.38,West,279,5.0,8.0,35,0.00,,,0.00,,2013-01-26 05:22:00,
2013-01-25 20:32:00,33.0,8.0,29.38,West,279,7.0,17.0,34,0.00,,,0.00,,2013-01-26 05:32:00,
2013-01-25 20:41:00,33.0,8.0,29.38,West,279,7.0,17.0,34,0.00,,,0.00,,2013-01-26 05:41:00,
2013-01-25 20:52:00,32.0,8.0,29.38,West,279,8.0,0.0,36,0.00,,,0.00,,2013-01-26 05:52:00,
2013-01-25 21:02:00,33.0,9.0,29.38,West,279,7.0,7.0,36,0.00,,,0.00,,2013-01-26 06:02:00,
2013-01-25 21:11:00,33.0,9.0,29.38,West,279,7.0,7.0,36,0.00,,,0.00,,2013-01-26 06:11:00,
2013-01-25 21:21:00,33.0,8.0,29.41,West,279,8.0,8.0,35,0.00,,,0.00,,2013-01-26 06:21:00,
2013-01-25 21:31:00,32.0,8.0,29.41,West,279,8.0,8.0,36,0.00,,,0.00,,2013-01-26 06:31:00,
2013-01-25 21:41:00,32.0,8.0,29.41,West,279,8.0,8.0,36,0.00,,,0.00,,2013-01-26 06:41:00,
2013-01-25 21:52:00,32.0,7.0,29.41,West,279,6.0,0.0,34,0.00,,,0.00,,2013-01-26 06:52:00,
2013-01-25 22:01:00,30.0,8.0,29.41,West,279,3.0,0.0,39,0.00,,,0.00,,2013-01-26 07:01:00,
2013-01-25 22:11:00,30.0,8.0,29.41,West,279,3.0,0.0,39,0.00,,,0.00,,2013-01-26 07:11:00,
2013-01-25 22:21:00,30.0,8.0,29.41,West,279,3.0,0.0,39,0.00,,,0.00,,2013-01-26 07:21:00,
2013-01-25 22:32:00,30.0,6.0,29.41,West,279,1.0,0.0,36,0.00,,,0.00,,2013-01-26 07:32:00,
2013-01-25 22:41:00,30.0,6.0,29.41,West,279,1.0,0.0,36,0.00,,,0.00,,2013-01-26 07:41:00,
2013-01-25 22:51:00,29.0,7.0,29.41,West,279,0.0,0.0,39,0.00,,,0.00,,2013-01-26 07:51:00,
2013-01-25 23:02:00,29.0,8.0,29.41,West,279,0.0,0.0,41,0.00,,,0.00,,2013-01-26 08:02:00,
2013-01-25 23:11:00,29.0,8.0,29.41,West,279,0.0,0.0,41,0.00,,,0.00,,2013-01-26 08:11:00,
2013-01-25 23:21:00,30.0,10.0,29.41,West,279,2.0,6.0,42,0.00,,,0.00,,2013-01-26 08:21:00,
2013-01-25 23:31:00,31.0,6.0,29.44,West,279,4.0,4.0,34,0.00,,,0.00,,2013-01-26 08:31:00,
2013-01-25 23:41:00,31.0,6.0,29.44,West,279,4.0,4.0,34,0.00,,,0.00,,2013-01-26 08:41:00,
2013-01-25 23:53:00,31.0,5.0,29.44,West,279,2.0,0.0,33,0.00,,,0.00,,2013-01-26 08:53:00,